www.pogodaiklimat.ru

Погода и климат >> Архив погоды >> Россия >> Камчатский край >> Петропавловск-Камчатский


АРХИВ ПОГОДЫ в Петропавловск-Камчатском

Время (UTC), дата Ветер
(напр.,м/с)
 
Видим.   Явления Облачность Т
(С)
Тd
(С)
f
(%)
Тe
(С)
Тes
(С)
Комфортность P
(гПа)
Po
(гПа)
Тmin
(С)
Tmax
(С)
R
(мм)
R24
(мм)
S
(см)
09 12.08 С 4 50 км 4/3 1000 м
[Sc Ci fib]
+18.8 +11.0 60 +19 +19 тепло 1000.4 997.6 +24.0
12 12.08 С 4
{10}
50 км 3/3 1000 м
[Sc]
+16.3 +10.9 70 +16 +16 тепло 1001.1 998.3
15 12.08 С 4 50 км ясно +15.9 +10.6 71 +15 +15 тепло 1001.2 998.4
18 12.08 С 3 50 км 8/4 1000 м
[Sc Ci fib]
+14.6 +10.8 78 +14 +14 тепло 1001.9 999.1
21 12.08 З 1 50 км 9/8 1000 м
[Sc Ci fib]
+14.9 +12.0 83 +15 +16 тепло 1002.4 999.5 +13.4
00 13.08 СЗ 1 50 км 9/3 1000 м
[Sc Ac trans Ci fib]
+18.2 +12.4 69 +20 +25 тепло 1002.3 999.5
03 13.08 ЮВ 3 50 км 8/3 600 м
[Sc Ac trans Ci fib]
+21.5 +9.9 48 +23 +27 комфорт 1002.0 999.2
06 13.08 ЮВ 4 50 км 8/3 600 м
[Sc Ci fib]
+17.8 +11.1 65 +18 +19 тепло 1002.8 1000.0
09 13.08 ЮВ 3 50 км 8/4 600 м
[Sc Ac trans Ci fib]
+12.2 +10.1 87 +11 +11 по сезону 1004.7 1001.8 +21.8
12 13.08 ЮВ 2 20 км 8/8 600 м
[Sc]
+10.9 +9.5 91 +10 +10 по сезону 1006.1 1003.2
15 13.08 ЮВ 1 10 км 10/10 300 м
[St]
+11.4 +10.1 92 +11 +11 по сезону 1006.6 1003.7
18 13.08 ЮВ 1 4000 м туман на расстоянии 10/10 300 м
[St]
+11.4 +10.2 92 +11 +11 по сезону 1007.1 1004.2
21 13.08 СЗ 1 20 км слаб. ливневой дождь 10/9 300 м
[Cb cap Ac trans]
+13.2 +12.0 92 +13 +13 по сезону 1007.7 1004.9 +10.9 0.8
00 14.08 Ю 1 10 км туман на расстоянии {ливн. осадки} 10/3 600 м
[Sc diur, vesp Ac cast Ci fib]
+16.7 +12.6 77 +18 +22 тепло 1008.1 1005.2
03 14.08 ЮВ 4 20 км туман на расстоянии 9/1 600 м
[Sc Ac cast Ci fib]
+14.3 +10.9 80 +13 +17 по сезону 1008.1 1005.2
06 14.08 ЮВ 4 50 км туман на расстоянии 9/3 300 м
[Sc Ac cast]
+13.1 +10.4 84 +11 +12 прохладно 1008.9 1006.0
09 14.08 ЮВ 2 20 км туман на расстоянии 9/8 200 м
[Sc Ac trans Ci fib]
+11.5 +9.8 89 +10 +10 прохладно 1010.0 1007.2 +17.2 0.0
12 14.08 ЮВ 3 4000 м туман на расстоянии 10/10 200 м
[St]
+10.7 +9.7 94 +9 +9 прохладно 1011.3 1008.4
15 14.08 ЮВ 2 4000 м туман на расстоянии 10/10 200 м
[St]
+10.9 +9.9 94 +9 +9 по сезону 1011.5 1008.6
18 14.08 ЮВ 2 10 км туман на расстоянии 10/10 200 м
[St]
+11.0 +9.6 91 +10 +10 по сезону 1012.0 1009.1
21 14.08 Ю 1 10 км 10/10 200 м
[St]
+12.2 +10.3 88 +12 +12 по сезону 1012.7 1009.8 +10.7
00 15.08 ЮЗ 1 10 км 9/9 200 м
[Sc]
+16.8 +11.8 72 +18 +19 тепло 1012.2 1009.4
03 15.08 ЮВ 6-10
{11}
20 км 8/8 600 м
[Sc]
+13.8 +10.0 78 +12 +13 по сезону 1011.3 1008.5
06 15.08 Ю 2
{10}
20 км 9/9 1000 м
[Sc]
+14.3 +9.9 75 +14 +14 по сезону 1011.0 1008.1
09 15.08 СВ 1 50 км 8/8 1000 м
[Sc Ci fib]
+14.6 +9.0 69 +15 +15 тепло 1010.0 1007.1 +17.1
12 15.08 СЗ 1 20 км 9/9 1000 м
[Sc]
+13.1 +10.2 83 +13 +13 по сезону 1009.5 1006.6
15 15.08 С 2 50 км 6/6 1000 м
[Sc]
+12.0 +10.4 90 +11 +11 по сезону 1008.1 1005.2
18 15.08 СЗ 2 50 км туман поземный 4/4 1000 м
[Sc]
+12.3 +11.0 92 +11 +11 по сезону 1006.8 1003.9
21 15.08 СЗ 3 50 км туман поземный 8/4 1000 м
[Sc Ac trans Ci fib]
+13.9 +10.5 80 +13 +14 по сезону 1005.4 1002.5 +11.7
00 16.08 СЗ 5
{10}
50 км 4/4 1000 м
[Sc]
+19.5 +10.2 55 +20 +24 тепло 1003.3 1000.5
03 16.08 С 5-10
{12}
50 км слаб. ливневой дождь 10/10 600 м
[Cb cap]
+18.2 +9.1 55 +18 +18 тепло 1001.6 998.8
06 16.08 С 6-11
{15}
50 км {ливн. осадки} 10/10 1000 м
[Sc]
+16.7 +8.4 58 +16 +16 тепло 999.8 997.0
09 16.08 ЮВ 1
{12}
50 км 10/10 1000 м
[Sc]
+16.6 +8.0 57 +18 +18 тепло 1001.7 998.9 +21.0 0.0
12 16.08 ЮВ 4 20 км 10/10 600 м
[Sc]
+13.0 +8.8 76 +11 +11 по сезону 1002.7 999.9
15 16.08 ЮВ 3 20 км 10/10 600 м
[Sc]
+11.7 +8.8 82 +10 +10 по сезону 1002.9 1000.0
18 16.08 Ю 1 50 км {ливн. осадки} 10/10 1000 м
[Sc]
+11.8 +8.7 81 +12 +12 по сезону 1003.4 1000.6
21 16.08 С 2 50 км {ливн. осадки} 10/8 600 м
[Sc Ac und]
+12.7 +8.4 75 +12 +12 по сезону 1004.1 1001.2 +11.5 0.3
00 17.08 С 1 50 км {ливн. осадки} 10/8 600 м
[Sc Ac und]
+15.0 +9.5 70 +16 +16 тепло 1004.1 1001.3
03 17.08 В 2 50 км 10/10 600 м
[Sc]
+15.8 +8.2 61 +16 +16 тепло 1004.6 1001.8
06 17.08 В 5
{12}
20 км 10/10 600 м
[Sc]
+14.7 +7.8 63 +13 +13 по сезону 1005.9 1003.1
09 17.08 В 4-12
{12}
20 км 10/10 600 м
[Sc]
+14.4 +7.3 62 +13 +13 по сезону 1007.2 1004.4 +17.0
12 17.08 СВ 1
{13}
20 км 10/10 600 м
[Sc]
+13.4 +9.1 75 +14 +14 тепло 1008.3 1005.5
15 17.08 СВ 2
{11}
20 км 10/10 600 м
[Sc]
+14.2 +6.3 59 +14 +14 тепло 1008.8 1005.9
18 17.08 В 3
{13}
20 км 10/10 600 м
[Sc]
+14.2 +5.8 57 +13 +13 тепло 1010.2 1007.3
21 17.08 В 2-12
{14}
20 км 9/8 600 м
[Sc Ac trans]
+14.0 +6.0 59 +14 +14 тепло 1011.6 1008.7 +13.1
00 18.08 В 3
{12}
20 км 10/10 600 м
[Sc]
+14.9 +7.0 59 +14 +14 по сезону 1013.3 1010.5
03 18.08 В 3 20 км 10/10 600 м
[Sc]
+15.0 +7.8 62 +14 +14 по сезону 1014.1 1011.3
06 18.08 В 4 20 км 9/9 600 м
[Sc]
+14.2 +8.4 68 +13 +13 по сезону 1014.9 1012.1
09 18.08 ЮВ 2 20 км 10/10 600 м
[Sc]
+12.4 +8.9 79 +12 +12 по сезону 1016.3 1013.4 +15.1
12 18.08 В 2
{11}
10 км слаб. ливневой дождь 10/10 600 м
[Cb cap]
+12.2 +9.1 81 +11 +11 по сезону 1018.0 1015.1
15 18.08 С 2 10 км слаб. ливневой дождь 10/10 200 м
[Cb cap]
+11.6 +10.2 91 +10 +10 по сезону 1019.1 1016.2
18 18.08 С 1 20 км {ливн. осадки} 10/10 200 м
[Sc]
+11.6 +10.2 91 +11 +11 по сезону 1019.8 1016.9
21 18.08 СЗ 1 20 км 9/9 600 м
[Sc]
+12.8 +10.6 86 +13 +13 по сезону 1020.3 1017.4 +11.5 1
00 19.08 ЮВ 1 20 км слаб. ливневой дождь 10/10 300 м
[Cb cap]
+13.1 +10.4 84 +13 +13 по сезону 1020.7 1017.8
03 19.08 штиль 0 50 км {ливн. осадки} 10/10 600 м
[Sc]
+15.8 +10.1 69 +16 +16 тепло 1019.6 1016.7
06 19.08 В 4 20 км {ливн. осадки} 10/10 600 м
[Sc]
+14.4 +10.2 76 +13 +13 по сезону 1020.0 1017.1

 

Местоположение метеостанции Петропавловск-Камчатский (Камчатский край, Россия): широта 52.87 долгота 158.60 высота над уровнем моря 24 м.

В архиве по умолчанию представлена погода в Петропавловск-Камчатском за последнюю неделю. Архивные данные за месяц целиком и за предыдущие месяцы, начиная с января 2011 года, Вы можете получить, выбрав интересующий диапазон дат из раскрывающегося списка и нажав кнопку "Ввод!".


*Определитесь, кто Вы:
робот инопланетянин человек

Внимание! Время в таблицах - всемирное. Для получения местного времени необходимо прибавить поправку, которая равна 12 ч.

Смотрите также архив погоды в соседних городах и на ближайших метеорологических станциях:

Погода в Петропавловском Маяке (Камчатский край, Россия) (7 км)
Погода в Петропавловск-Камч. 2 (Камчатский край, Россия) (24 км)
Погода в Сосновке (Камчатский край, Россия) (31 км)
Погода в Начиках (Камчатский край, Россия) (66 км)
Погода в Водопадной (Камчатский край, Россия) (124 км)
Погода в Пущино (Камчатский край, Россия) (151 км)
Погода в Большерецке (Камчатский край, Россия) (155 км)
Погода в Семячике (Камчатский край, Россия) (163 км)
Погода в Мильково (Камчатский край, Россия) (201 км)
Погода в Озерной (Камчатский край, Россия) (215 км)

Пояснения к столбцам:

Ветер - указаны скорость ветра в м/с - средняя за 10 мин, порывы в срок и между сроками (в фигурных скобках) и направление, откуда дует ветер: С - северный, СВ - северо-восточный, В - восточный, ЮВ - юго-восточный, Ю - южный, ЮЗ - юго-западный, З - западный, СЗ - северо-западный.
Видимость - горизонтальная дальность видимости в метрах или километрах. При видимости от 1 до 10 км при отсутствии осадков обычно наблюдается дымка, при ухудшении видимости до 1 км и менее - туман. В сухую погоду видимость может ухудшаться дымом, пылью или мглою.
Явления - указаны атмосферные явления, наблюдавшиеся в срок или в последний час перед сроком; фигурными скобками обозначены явления, наблюдавшиеся между сроками (за 1-3 часа до срока); квадратными скобками обозначены град или гололедные отложения с указанием их диаметра в мм.
Облачность - указаны через наклонную черту общая и нижняя облачность в баллах и высота нижней границы облаков в метрах; квадратными скобками обозначены формы облаков: Ci - перистые, Cs - перисто-слоистые, Cc - перисто-кучевые, Ac - высококучевые, As - высокослоистые, Sc - слоисто-кучевые, Ns - слоисто-дождевые, Cu - кучевые, Cb - кучево-дождевые. Подробнее классификацию облаков см. в Атласе облаков (PDF).
T - Температура воздуха - температура, измеренная на высоте 2 м над землей.
Td - Температура точки росы - температура, при понижении до которой содержащийся в воздухе водяной пар достигнет насыщения.
f - Относительная влажность воздуха - влажноcть воздуха, измеренная на высоте 2 м над землей.
Te - Эффективная температура - температура, которую ощущает одетый по сезону человек в тени. Характеристика душности погоды. При расчете учитывается влияние влажности воздуха и скорости ветра на теплоощущения человека.
Tes - Эффективная температура на солнце - температура, которую ощущает человек, с поправкой на солнечный нагрев. Характеристика знойности погоды. Зависит от высоты солнца над горизонтом, облачности и скорости ветра. Ночью, в пасмурную погоду, а также при ветре 12 м/с и более поправка равна нулю.
P - Атмосферное давление - приведенное к уровню моря атмосферное давление.
Po - Атмосферное давление - измеренное на уровне метеостанции атмосферное давление.
Tmin - Минимальная температура - минимум температуры воздуха на высоте 2 м над землей.
Tmax - Максимальная температура - максимум температуры воздуха на высоте 2 м над землей.
R - Количество осадков - Количество выпавших осадков за период времени, мм. При наведении курсора мыши на число - период времени, за который выпало указанное количество осадков.
R24 - Количество осадков - Количество выпавших осадков за 24 часа, мм.
S - Снежный покров - Высота снежного покрова, см. При наведении курсора мыши на число - состояние снежного покрова и степень покрытия местности в баллах.